Time,TemperatureF,DewpointF,PressureIn,WindDirection,WindDirectionDegrees,WindSpeedMPH,WindSpeedGustMPH,Humidity,HourlyPrecipIn,Conditions,Clouds,dailyrainin,SoftwareType,DateUTC
2013-03-05 00:00:00,33.8,22.5,29.96,NNW,327,4.0,5.0,63,0.00,,,0.00,Wunderground v.1.15,2013-03-05 05:00:00,
2013-03-05 00:06:00,33.6,22.7,29.96,WNW,296,4.0,8.0,64,0.00,,,0.00,Wunderground v.1.15,2013-03-05 05:06:00,
2013-03-05 00:08:00,33.5,22.6,29.96,NW,313,5.0,7.0,64,0.00,,,0.00,Wunderground v.1.15,2013-03-05 05:08:00,
2013-03-05 00:10:00,33.5,22.6,29.96,NW,309,5.0,9.0,64,0.00,,,0.00,Wunderground v.1.15,2013-03-05 05:10:00,
2013-03-05 00:16:00,33.5,22.6,29.97,North,355,6.0,9.0,64,0.00,,,0.00,Wunderground v.1.15,2013-03-05 05:16:00,
2013-03-05 00:22:00,33.6,22.3,29.97,NNW,345,5.0,7.0,63,0.00,,,0.00,Wunderground v.1.15,2013-03-05 05:22:00,
2013-03-05 00:28:00,33.6,22.7,29.97,WNW,298,5.0,7.0,64,0.00,,,0.00,Wunderground v.1.15,2013-03-05 05:28:00,
2013-03-05 00:34:00,33.6,22.7,29.97,NW,323,6.0,8.0,64,0.00,,,0.00,Wunderground v.1.15,2013-03-05 05:34:00,
2013-03-05 00:40:00,33.6,22.3,29.98,West,265,7.0,7.0,63,0.00,,,0.00,Wunderground v.1.15,2013-03-05 05:40:00,
2013-03-05 00:46:00,33.6,22.3,29.98,NW,321,7.0,11.0,63,0.00,,,0.00,Wunderground v.1.15,2013-03-05 05:46:00,
2013-03-05 00:52:00,33.6,22.3,29.98,West,281,7.0,10.0,63,0.00,,,0.00,Wunderground v.1.15,2013-03-05 05:52:00,
2013-03-05 00:58:00,33.6,22.7,29.97,NW,307,8.0,8.0,64,0.00,,,0.00,Wunderground v.1.15,2013-03-05 05:58:00,
2013-03-05 01:04:00,33.5,22.6,29.98,NW,315,7.0,14.0,64,0.00,,,0.00,Wunderground v.1.15,2013-03-05 06:04:00,
2013-03-05 01:10:00,33.5,22.6,29.98,WNW,282,7.0,7.0,64,0.00,,,0.00,Wunderground v.1.15,2013-03-05 06:10:00,
2013-03-05 01:16:00,33.4,22.5,29.98,NW,311,7.0,8.0,64,0.00,,,0.00,Wunderground v.1.15,2013-03-05 06:16:00,
2013-03-05 01:22:00,33.4,22.5,29.98,WNW,302,8.0,14.0,64,0.00,,,0.00,Wunderground v.1.15,2013-03-05 06:22:00,
2013-03-05 01:28:00,33.4,22.5,29.97,WNW,301,7.0,8.0,64,0.00,,,0.00,Wunderground v.1.15,2013-03-05 06:28:00,
2013-03-05 01:34:00,33.3,22.8,29.98,WNW,289,7.0,8.0,65,0.00,,,0.00,Wunderground v.1.15,2013-03-05 06:34:00,
2013-03-05 01:40:00,33.2,22.7,29.97,WNW,290,6.0,6.0,65,0.00,,,0.00,Wunderground v.1.15,2013-03-05 06:40:00,
2013-03-05 01:46:00,33.1,22.6,29.97,WNW,303,6.0,7.0,65,0.00,,,0.00,Wunderground v.1.15,2013-03-05 06:46:00,
2013-03-05 01:52:00,33.0,22.5,29.98,NW,311,5.0,7.0,65,0.00,,,0.00,Wunderground v.1.15,2013-03-05 06:52:00,
2013-03-05 01:58:00,32.9,22.8,29.98,WNW,295,3.0,3.0,66,0.00,,,0.00,Wunderground v.1.15,2013-03-05 06:58:00,
2013-03-05 02:04:00,32.8,22.7,29.98,WNW,293,4.0,11.0,66,0.00,,,0.00,Wunderground v.1.15,2013-03-05 07:04:00,
2013-03-05 02:10:00,32.9,22.8,29.98,NNW,332,5.0,5.0,66,0.00,,,0.00,Wunderground v.1.15,2013-03-05 07:10:00,
2013-03-05 02:16:00,32.8,22.7,29.98,NW,324,4.0,7.0,66,0.00,,,0.00,Wunderground v.1.15,2013-03-05 07:16:00,
2013-03-05 02:22:00,32.7,22.9,29.97,WNW,297,5.0,9.0,67,0.00,,,0.00,Wunderground v.1.15,2013-03-05 07:22:00,
2013-03-05 02:28:00,32.6,22.8,29.97,WNW,286,5.0,5.0,67,0.00,,,0.00,Wunderground v.1.15,2013-03-05 07:28:00,
2013-03-05 02:34:00,32.6,22.8,29.97,WNW,300,5.0,10.0,67,0.00,,,0.00,Wunderground v.1.15,2013-03-05 07:34:00,
2013-03-05 02:40:00,32.6,22.8,29.97,North,355,6.0,9.0,67,0.00,,,0.00,Wunderground v.1.15,2013-03-05 07:40:00,
2013-03-05 02:46:00,32.6,22.8,29.97,NNE,27,5.0,9.0,67,0.00,,,0.00,Wunderground v.1.15,2013-03-05 07:46:00,
2013-03-05 02:52:00,32.6,23.2,29.97,NNW,346,4.0,7.0,68,0.00,,,0.00,Wunderground v.1.15,2013-03-05 07:52:00,
2013-03-05 02:58:00,32.6,23.2,29.98,NW,323,5.0,5.0,68,0.00,,,0.00,Wunderground v.1.15,2013-03-05 07:58:00,
2013-03-05 03:04:00,32.5,23.1,29.98,NW,324,3.0,5.0,68,0.00,,,0.00,Wunderground v.1.15,2013-03-05 08:04:00,
2013-03-05 03:10:00,32.5,23.1,29.98,NW,313,4.0,5.0,68,0.00,,,0.00,Wunderground v.1.15,2013-03-05 08:10:00,
2013-03-05 03:16:00,32.5,23.1,29.98,WNW,295,4.0,5.0,68,0.00,,,0.00,Wunderground v.1.15,2013-03-05 08:16:00,
2013-03-05 03:22:00,32.4,23.0,29.98,NW,323,3.0,4.0,68,0.00,,,0.00,Wunderground v.1.15,2013-03-05 08:22:00,
2013-03-05 03:28:00,32.4,23.4,29.98,NNW,340,4.0,4.0,69,0.00,,,0.00,Wunderground v.1.15,2013-03-05 08:28:00,
2013-03-05 03:34:00,32.4,23.4,29.98,NW,309,4.0,4.0,69,0.00,,,0.00,Wunderground v.1.15,2013-03-05 08:34:00,
2013-03-05 03:40:00,32.5,23.5,29.98,NNW,329,5.0,7.0,69,0.00,,,0.00,Wunderground v.1.15,2013-03-05 08:40:00,
2013-03-05 03:46:00,32.5,23.5,29.98,NNE,21,6.0,7.0,69,0.00,,,0.00,Wunderground v.1.15,2013-03-05 08:46:00,
2013-03-05 03:52:00,32.6,23.6,29.99,NE,38,6.0,6.0,69,0.00,,,0.00,Wunderground v.1.15,2013-03-05 08:52:00,
2013-03-05 03:58:00,32.5,23.5,29.99,NW,326,5.0,5.0,69,0.00,,,0.00,Wunderground v.1.15,2013-03-05 08:58:00,
2013-03-05 04:04:00,32.5,23.5,29.99,NNW,345,4.0,5.0,69,0.00,,,0.00,Wunderground v.1.15,2013-03-05 09:04:00,
2013-03-05 04:10:00,32.4,23.4,29.99,NNW,340,3.0,3.0,69,0.00,,,0.00,Wunderground v.1.15,2013-03-05 09:10:00,
2013-03-05 04:16:00,32.2,23.5,30.00,NNW,341,2.0,3.0,70,0.00,,,0.00,Wunderground v.1.15,2013-03-05 09:16:00,
2013-03-05 04:22:00,32.1,23.4,30.00,NW,325,3.0,3.0,70,0.00,,,0.00,Wunderground v.1.15,2013-03-05 09:22:00,
2013-03-05 04:28:00,32.0,23.3,30.00,NNW,335,3.0,5.0,70,0.00,,,0.00,Wunderground v.1.15,2013-03-05 09:28:00,
2013-03-05 04:34:00,32.0,23.3,30.00,WNW,288,3.0,6.0,70,0.00,,,0.00,Wunderground v.1.15,2013-03-05 09:34:00,
2013-03-05 04:40:00,32.0,23.7,30.01,WNW,296,3.0,5.0,71,0.00,,,0.00,Wunderground v.1.15,2013-03-05 09:40:00,
2013-03-05 04:46:00,32.0,23.7,30.01,WNW,298,4.0,7.0,71,0.00,,,0.00,Wunderground v.1.15,2013-03-05 09:46:00,
2013-03-05 04:52:00,32.0,23.7,30.01,WNW,302,5.0,5.0,71,0.00,,,0.00,Wunderground v.1.15,2013-03-05 09:52:00,
2013-03-05 04:58:00,31.9,23.2,30.01,NW,309,4.0,4.0,70,0.00,,,0.00,Wunderground v.1.15,2013-03-05 09:58:00,
2013-03-05 05:04:00,31.7,23.4,30.01,NW,311,2.0,4.0,71,0.00,,,0.00,Wunderground v.1.15,2013-03-05 10:04:00,
2013-03-05 05:10:00,31.6,23.3,30.01,WNW,297,3.0,3.0,71,0.00,,,0.00,Wunderground v.1.15,2013-03-05 10:10:00,
2013-03-05 05:16:00,31.4,23.1,30.02,NW,317,3.0,6.0,71,0.00,,,0.00,Wunderground v.1.15,2013-03-05 10:16:00,
2013-03-05 05:22:00,31.2,22.9,30.02,NW,305,3.0,4.0,71,0.00,,,0.00,Wunderground v.1.15,2013-03-05 10:22:00,
2013-03-05 05:28:00,31.2,23.2,30.02,NW,304,2.0,2.0,72,0.00,,,0.00,Wunderground v.1.15,2013-03-05 10:28:00,
2013-03-05 05:34:00,31.1,23.1,30.02,West,268,2.0,4.0,72,0.00,,,0.00,Wunderground v.1.15,2013-03-05 10:34:00,
2013-03-05 05:40:00,31.0,23.0,30.03,WNW,298,2.0,3.0,72,0.00,,,0.00,Wunderground v.1.15,2013-03-05 10:40:00,
2013-03-05 05:46:00,30.8,22.8,30.03,WNW,296,2.0,3.0,72,0.00,,,0.00,Wunderground v.1.15,2013-03-05 10:46:00,
2013-03-05 05:52:00,30.6,22.6,30.03,WNW,296,1.0,2.0,72,0.00,,,0.00,Wunderground v.1.15,2013-03-05 10:52:00,
2013-03-05 05:58:00,30.5,22.9,30.03,WNW,296,1.0,1.0,73,0.00,,,0.00,Wunderground v.1.15,2013-03-05 10:58:00,
2013-03-05 06:04:00,30.4,23.1,30.03,North,355,1.0,2.0,74,0.00,,,0.00,Wunderground v.1.15,2013-03-05 11:04:00,
2013-03-05 06:10:00,30.3,23.0,30.03,WNW,287,2.0,4.0,74,0.00,,,0.00,Wunderground v.1.15,2013-03-05 11:10:00,
2013-03-05 06:16:00,30.3,23.0,30.04,WNW,287,1.0,4.0,74,0.00,,,0.00,Wunderground v.1.15,2013-03-05 11:16:00,
2013-03-05 06:22:00,30.2,22.9,30.04,WNW,300,1.0,4.0,74,0.00,,,0.00,Wunderground v.1.15,2013-03-05 11:22:00,
2013-03-05 06:28:00,30.2,22.9,30.04,WNW,296,2.0,3.0,74,0.00,,,0.00,Wunderground v.1.15,2013-03-05 11:28:00,
2013-03-05 06:34:00,30.2,22.9,30.04,WNW,298,2.0,3.0,74,0.00,,,0.00,Wunderground v.1.15,2013-03-05 11:34:00,
2013-03-05 06:40:00,30.1,22.8,30.04,NW,309,3.0,3.0,74,0.00,,,0.00,Wunderground v.1.15,2013-03-05 11:40:00,
2013-03-05 06:46:00,30.2,22.9,30.04,NW,311,2.0,3.0,74,0.00,,,0.00,Wunderground v.1.15,2013-03-05 11:46:00,
2013-03-05 06:52:00,30.2,22.9,30.04,WNW,282,2.0,5.0,74,0.00,,,0.00,Wunderground v.1.15,2013-03-05 11:52:00,
2013-03-05 06:58:00,30.4,23.1,30.04,NW,324,3.0,3.0,74,0.00,,,0.00,Wunderground v.1.15,2013-03-05 11:58:00,
2013-03-05 07:04:00,30.5,23.2,30.04,NW,304,3.0,3.0,74,0.00,,,0.00,Wunderground v.1.15,2013-03-05 12:04:00,
2013-03-05 07:10:00,30.7,23.4,30.05,NW,323,3.0,4.0,74,0.00,,,0.00,Wunderground v.1.15,2013-03-05 12:10:00,
2013-03-05 07:16:00,31.0,23.4,30.05,NW,317,3.0,6.0,73,0.00,,,0.00,Wunderground v.1.15,2013-03-05 12:16:00,
2013-03-05 07:22:00,31.3,23.6,30.05,North,350,3.0,3.0,73,0.00,,,0.00,Wunderground v.1.15,2013-03-05 12:22:00,
2013-03-05 07:28:00,31.8,23.8,30.05,NNW,348,3.0,4.0,72,0.00,,,0.00,Wunderground v.1.15,2013-03-05 12:28:00,
2013-03-05 07:34:00,32.4,24.0,30.05,NW,324,4.0,4.0,71,0.00,,,0.00,Wunderground v.1.15,2013-03-05 12:34:00,
2013-03-05 07:40:00,33.1,24.4,30.05,North,360,5.0,5.0,70,0.00,,,0.00,Wunderground v.1.15,2013-03-05 12:40:00,
2013-03-05 07:46:00,33.7,24.6,30.05,WNW,296,4.0,6.0,69,0.00,,,0.00,Wunderground v.1.15,2013-03-05 12:46:00,
2013-03-05 07:52:00,34.1,24.6,30.05,North,9,5.0,9.0,68,0.00,,,0.00,Wunderground v.1.15,2013-03-05 12:52:00,
2013-03-05 07:58:00,34.6,24.8,30.06,NNE,26,5.0,5.0,67,0.00,,,0.00,Wunderground v.1.15,2013-03-05 12:58:00,
2013-03-05 08:04:00,35.0,24.8,30.06,NNW,338,5.0,8.0,66,0.00,,,0.00,Wunderground v.1.15,2013-03-05 13:04:00,
2013-03-05 08:10:00,35.4,24.8,30.06,NNW,344,6.0,6.0,65,0.00,,,0.00,Wunderground v.1.15,2013-03-05 13:10:00,
2013-03-05 08:16:00,35.7,25.1,30.06,NNW,333,6.0,7.0,65,0.00,,,0.00,Wunderground v.1.15,2013-03-05 13:16:00,
2013-03-05 08:22:00,36.2,24.8,30.06,NNW,331,6.0,6.0,63,0.00,,,0.00,Wunderground v.1.15,2013-03-05 13:22:00,
2013-03-05 08:28:00,36.8,25.4,30.06,WNW,288,6.0,9.0,63,0.00,,,0.00,Wunderground v.1.15,2013-03-05 13:28:00,
2013-03-05 08:34:00,37.4,25.6,30.06,NW,323,7.0,9.0,62,0.00,,,0.00,Wunderground v.1.15,2013-03-05 13:34:00,
2013-03-05 08:40:00,37.9,25.6,30.06,NNW,335,6.0,7.0,61,0.00,,,0.00,Wunderground v.1.15,2013-03-05 13:40:00,
2013-03-05 08:46:00,38.1,25.4,30.06,NNW,331,7.0,10.0,60,0.00,,,0.00,Wunderground v.1.15,2013-03-05 13:46:00,
2013-03-05 08:52:00,38.1,25.4,30.06,North,350,7.0,14.0,60,0.00,,,0.00,Wunderground v.1.15,2013-03-05 13:52:00,
2013-03-05 08:58:00,38.3,26.0,30.06,NW,319,6.0,6.0,61,0.00,,,0.00,Wunderground v.1.15,2013-03-05 13:58:00,
2013-03-05 09:04:00,38.7,26.0,30.06,NW,311,6.0,12.0,60,0.00,,,0.00,Wunderground v.1.15,2013-03-05 14:04:00,
2013-03-05 09:10:00,39.0,25.9,30.06,WNW,300,6.0,9.0,59,0.00,,,0.00,Wunderground v.1.15,2013-03-05 14:10:00,
2013-03-05 09:16:00,39.4,26.2,30.06,NNW,348,6.0,9.0,59,0.00,,,0.00,Wunderground v.1.15,2013-03-05 14:16:00,
2013-03-05 09:22:00,39.7,26.1,30.07,North,355,7.0,9.0,58,0.00,,,0.00,Wunderground v.1.15,2013-03-05 14:22:00,
2013-03-05 09:28:00,40.2,26.2,30.06,NNE,22,6.0,10.0,57,0.00,,,0.00,Wunderground v.1.15,2013-03-05 14:28:00,
2013-03-05 09:34:00,40.4,25.9,30.07,North,355,6.0,10.0,56,0.00,,,0.00,Wunderground v.1.15,2013-03-05 14:34:00,
2013-03-05 09:40:00,40.5,26.4,30.06,NNW,348,6.0,7.0,57,0.00,,,0.00,Wunderground v.1.15,2013-03-05 14:40:00,
2013-03-05 09:46:00,37.3,25.5,30.07,NE,47,4.0,7.0,62,0.00,,,0.00,Wunderground v.1.15,2013-03-05 14:46:00,
2013-03-05 09:52:00,37.4,25.6,30.06,NE,47,1.0,2.0,62,0.00,,,0.00,Wunderground v.1.15,2013-03-05 14:52:00,
2013-03-05 09:58:00,37.3,25.1,30.06,NE,47,2.0,2.0,61,0.00,,,0.00,Wunderground v.1.15,2013-03-05 14:58:00,
2013-03-05 10:04:00,37.6,25.4,30.06,NE,48,2.0,3.0,61,0.00,,,0.00,Wunderground v.1.15,2013-03-05 15:04:00,
2013-03-05 10:10:00,37.5,25.3,30.06,NE,48,2.0,3.0,61,0.00,,,0.00,Wunderground v.1.15,2013-03-05 15:10:00,
2013-03-05 10:16:00,37.9,26.0,30.06,NE,48,1.0,3.0,62,0.00,,,0.00,Wunderground v.1.15,2013-03-05 15:16:00,
2013-03-05 10:22:00,38.4,26.1,30.05,NE,48,0.0,1.0,61,0.00,,,0.00,Wunderground v.1.15,2013-03-05 15:22:00,
2013-03-05 10:28:00,38.8,26.1,30.06,NE,48,1.0,1.0,60,0.00,,,0.00,Wunderground v.1.15,2013-03-05 15:28:00,
2013-03-05 10:34:00,43.4,27.8,30.05,North,5,1.0,3.0,54,0.00,,,0.00,Wunderground v.1.15,2013-03-05 15:34:00,
2013-03-05 10:40:00,44.0,27.5,30.05,NE,49,3.0,7.0,52,0.00,,,0.00,Wunderground v.1.15,2013-03-05 15:40:00,
2013-03-05 10:46:00,43.6,27.1,30.05,NW,306,4.0,7.0,52,0.00,,,0.00,Wunderground v.1.15,2013-03-05 15:46:00,
2013-03-05 10:52:00,43.5,27.0,30.05,North,360,6.0,9.0,52,0.00,,,0.00,Wunderground v.1.15,2013-03-05 15:52:00,
2013-03-05 10:58:00,44.1,28.0,30.05,NE,34,5.0,5.0,53,0.00,,,0.00,Wunderground v.1.15,2013-03-05 15:58:00,
2013-03-05 11:04:00,44.2,27.7,30.05,NNE,13,5.0,7.0,52,0.00,,,0.00,Wunderground v.1.15,2013-03-05 16:04:00,
2013-03-05 11:10:00,44.1,27.6,30.05,North,11,5.0,5.0,52,0.00,,,0.00,Wunderground v.1.15,2013-03-05 16:10:00,
2013-03-05 11:16:00,44.4,27.9,30.05,NW,313,5.0,10.0,52,0.00,,,0.00,Wunderground v.1.15,2013-03-05 16:16:00,
2013-03-05 11:22:00,45.3,28.2,30.05,North,355,5.0,6.0,51,0.00,,,0.00,Wunderground v.1.15,2013-03-05 16:22:00,
2013-03-05 11:28:00,45.3,27.7,30.05,NNE,13,5.0,6.0,50,0.00,,,0.00,Wunderground v.1.15,2013-03-05 16:28:00,
2013-03-05 11:34:00,44.7,27.7,30.05,North,360,6.0,10.0,51,0.00,,,0.00,Wunderground v.1.15,2013-03-05 16:34:00,
2013-03-05 11:40:00,44.3,27.3,30.04,NNE,25,7.0,7.0,51,0.00,,,0.00,Wunderground v.1.15,2013-03-05 16:40:00,
2013-03-05 11:46:00,44.3,27.3,30.05,NE,37,7.0,9.0,51,0.00,,,0.00,Wunderground v.1.15,2013-03-05 16:46:00,
2013-03-05 11:52:00,44.4,27.4,30.05,NNE,13,5.0,7.0,51,0.00,,,0.00,Wunderground v.1.15,2013-03-05 16:52:00,
2013-03-05 11:58:00,45.6,28.5,30.04,NNW,345,3.0,4.0,51,0.00,,,0.00,Wunderground v.1.15,2013-03-05 16:58:00,
2013-03-05 12:04:00,47.3,29.1,30.04,NNW,338,4.0,5.0,49,0.00,,,0.00,Wunderground v.1.15,2013-03-05 17:04:00,
2013-03-05 12:10:00,47.7,28.9,30.04,NNW,330,5.0,6.0,48,0.00,,,0.00,Wunderground v.1.15,2013-03-05 17:10:00,
2013-03-05 12:16:00,47.5,28.3,30.03,NNE,13,5.0,7.0,47,0.00,,,0.00,Wunderground v.1.15,2013-03-05 17:16:00,
2013-03-05 12:22:00,46.8,28.1,30.03,NW,319,6.0,6.0,48,0.00,,,0.00,Wunderground v.1.15,2013-03-05 17:22:00,
2013-03-05 12:28:00,47.8,28.5,30.03,NW,305,5.0,6.0,47,0.00,,,0.00,Wunderground v.1.15,2013-03-05 17:28:00,
2013-03-05 12:34:00,47.7,27.9,30.03,North,355,5.0,11.0,46,0.00,,,0.00,Wunderground v.1.15,2013-03-05 17:34:00,
2013-03-05 12:40:00,47.5,27.7,30.03,NNE,29,5.0,5.0,46,0.00,,,0.00,Wunderground v.1.15,2013-03-05 17:40:00,
2013-03-05 12:46:00,47.0,28.3,30.03,NNE,24,3.0,5.0,48,0.00,,,0.00,Wunderground v.1.15,2013-03-05 17:46:00,
2013-03-05 12:52:00,47.0,27.8,30.03,North,5,5.0,15.0,47,0.00,,,0.00,Wunderground v.1.15,2013-03-05 17:52:00,
2013-03-05 12:58:00,47.2,28.0,30.03,NE,48,5.0,5.0,47,0.00,,,0.00,Wunderground v.1.15,2013-03-05 17:58:00,
2013-03-05 13:04:00,46.9,28.2,30.03,ENE,59,4.0,5.0,48,0.00,,,0.00,Wunderground v.1.15,2013-03-05 18:04:00,
2013-03-05 13:10:00,47.6,28.9,30.03,NNE,14,5.0,5.0,48,0.00,,,0.00,Wunderground v.1.15,2013-03-05 18:10:00,
2013-03-05 13:16:00,48.4,28.5,30.03,WNW,297,4.0,5.0,46,0.00,,,0.00,Wunderground v.1.15,2013-03-05 18:16:00,
2013-03-05 13:22:00,49.5,29.0,30.03,North,5,3.0,10.0,45,0.00,,,0.00,Wunderground v.1.15,2013-03-05 18:22:00,
2013-03-05 13:28:00,50.1,29.0,30.03,North,360,4.0,4.0,44,0.00,,,0.00,Wunderground v.1.15,2013-03-05 18:28:00,
2013-03-05 13:34:00,50.2,29.1,30.03,NW,313,3.0,6.0,44,0.00,,,0.00,Wunderground v.1.15,2013-03-05 18:34:00,
2013-03-05 13:40:00,50.4,28.7,30.03,WNW,293,4.0,8.0,43,0.00,,,0.00,Wunderground v.1.15,2013-03-05 18:40:00,
2013-03-05 13:46:00,50.3,28.6,30.03,NE,54,5.0,10.0,43,0.00,,,0.00,Wunderground v.1.15,2013-03-05 18:46:00,
2013-03-05 13:52:00,49.2,28.2,30.02,NE,46,4.0,5.0,44,0.00,,,0.00,Wunderground v.1.15,2013-03-05 18:52:00,
2013-03-05 13:58:00,49.0,28.6,30.02,NNW,331,4.0,4.0,45,0.00,,,0.00,Wunderground v.1.15,2013-03-05 18:58:00,
2013-03-05 14:06:00,48.5,28.6,30.02,North,5,4.0,5.0,46,0.00,,,0.00,Wunderground v.1.15,2013-03-05 19:06:00,
2013-03-05 14:12:00,49.4,28.4,30.03,NNE,13,5.0,5.0,44,0.00,,,0.00,Wunderground v.1.15,2013-03-05 19:12:00,
2013-03-05 14:18:00,48.7,27.7,30.03,NNE,15,5.0,5.0,44,0.00,,,0.00,Wunderground v.1.15,2013-03-05 19:18:00,
2013-03-05 14:26:00,49.2,29.3,30.03,North,351,3.0,5.0,46,0.00,,,0.00,Wunderground v.1.15,2013-03-05 19:26:00,
2013-03-05 14:32:00,50.5,29.4,30.02,NNW,339,3.0,4.0,44,0.00,,,0.00,Wunderground v.1.15,2013-03-05 19:32:00,
2013-03-05 14:38:00,51.4,29.1,30.02,WSW,248,2.0,2.0,42,0.00,,,0.00,Wunderground v.1.15,2013-03-05 19:38:00,
2013-03-05 14:44:00,52.1,29.1,30.02,NW,315,2.0,4.0,41,0.00,,,0.00,Wunderground v.1.15,2013-03-05 19:44:00,
2013-03-05 14:50:00,51.5,28.6,30.02,North,5,3.0,5.0,41,0.00,,,0.00,Wunderground v.1.15,2013-03-05 19:50:00,
2013-03-05 14:56:00,51.2,28.3,30.02,NNE,20,3.0,6.0,41,0.00,,,0.00,Wunderground v.1.15,2013-03-05 19:56:00,
2013-03-05 15:02:00,51.2,28.3,30.02,North,351,3.0,4.0,41,0.00,,,0.00,Wunderground v.1.15,2013-03-05 20:02:00,
2013-03-05 15:08:00,50.8,29.1,30.02,NNW,331,3.0,4.0,43,0.00,,,0.00,Wunderground v.1.15,2013-03-05 20:08:00,
2013-03-05 15:14:00,50.8,29.1,30.02,NE,40,4.0,4.0,43,0.00,,,0.00,Wunderground v.1.15,2013-03-05 20:14:00,
2013-03-05 15:20:00,50.9,28.6,30.02,NNE,18,3.0,4.0,42,0.00,,,0.00,Wunderground v.1.15,2013-03-05 20:20:00,
2013-03-05 15:26:00,51.0,28.7,30.02,North,5,3.0,5.0,42,0.00,,,0.00,Wunderground v.1.15,2013-03-05 20:26:00,
2013-03-05 15:32:00,50.5,28.2,30.01,North,5,4.0,6.0,42,0.00,,,0.00,Wunderground v.1.15,2013-03-05 20:32:00,
2013-03-05 15:38:00,49.9,28.3,30.01,NE,40,4.0,4.0,43,0.00,,,0.00,Wunderground v.1.15,2013-03-05 20:38:00,
2013-03-05 15:44:00,49.2,28.7,30.01,NE,44,3.0,4.0,45,0.00,,,0.00,Wunderground v.1.15,2013-03-05 20:44:00,
2013-03-05 15:50:00,48.4,28.5,30.01,NE,49,2.0,3.0,46,0.00,,,0.00,Wunderground v.1.15,2013-03-05 20:50:00,
2013-03-05 15:56:00,47.8,29.5,30.02,ESE,113,2.0,4.0,49,0.00,,,0.00,Wunderground v.1.15,2013-03-05 20:56:00,
2013-03-05 16:02:00,47.1,28.9,30.01,NE,35,2.0,2.0,49,0.00,,,0.00,Wunderground v.1.15,2013-03-05 21:02:00,
2013-03-05 16:08:00,46.8,28.6,30.02,ENE,66,2.0,2.0,49,0.00,,,0.00,Wunderground v.1.15,2013-03-05 21:08:00,
2013-03-05 16:14:00,46.7,29.0,30.02,SE,132,2.0,3.0,50,0.00,,,0.00,Wunderground v.1.15,2013-03-05 21:14:00,
2013-03-05 16:20:00,46.9,28.7,30.01,NE,44,1.0,4.0,49,0.00,,,0.00,Wunderground v.1.15,2013-03-05 21:20:00,
2013-03-05 16:26:00,46.6,28.9,30.01,ESE,116,2.0,4.0,50,0.00,,,0.00,Wunderground v.1.15,2013-03-05 21:26:00,
2013-03-05 16:32:00,46.5,28.8,30.01,ENE,57,1.0,2.0,50,0.00,,,0.00,Wunderground v.1.15,2013-03-05 21:32:00,
2013-03-05 16:38:00,46.2,29.1,30.01,ESE,105,2.0,2.0,51,0.00,,,0.00,Wunderground v.1.15,2013-03-05 21:38:00,
2013-03-05 16:44:00,45.7,28.6,30.01,ENE,65,2.0,2.0,51,0.00,,,0.00,Wunderground v.1.15,2013-03-05 21:44:00,
2013-03-05 16:50:00,45.3,28.7,30.01,ENE,60,2.0,2.0,52,0.00,,,0.00,Wunderground v.1.15,2013-03-05 21:50:00,
2013-03-05 16:56:00,45.0,29.3,30.01,SE,127,1.0,4.0,54,0.00,,,0.00,Wunderground v.1.15,2013-03-05 21:56:00,
2013-03-05 17:02:00,44.7,30.0,30.01,ESE,111,1.0,2.0,56,0.00,,,0.00,Wunderground v.1.15,2013-03-05 22:02:00,
2013-03-05 17:08:00,44.6,29.4,30.01,ENE,60,2.0,2.0,55,0.00,,,0.00,Wunderground v.1.15,2013-03-05 22:08:00,
2013-03-05 17:14:00,44.5,29.3,30.01,ENE,61,2.0,4.0,55,0.00,,,0.00,Wunderground v.1.15,2013-03-05 22:14:00,
2013-03-05 17:20:00,44.5,30.2,30.01,ENE,57,1.0,1.0,57,0.00,,,0.00,Wunderground v.1.15,2013-03-05 22:20:00,
2013-03-05 17:26:00,44.3,30.0,30.02,ESE,121,0.0,1.0,57,0.00,,,0.00,Wunderground v.1.15,2013-03-05 22:26:00,
2013-03-05 17:32:00,44.2,29.9,30.02,ESE,121,0.0,0.0,57,0.00,,,0.00,Wunderground v.1.15,2013-03-05 22:32:00,
2013-03-05 17:38:00,43.9,29.2,30.03,ESE,121,0.0,0.0,56,0.00,,,0.00,Wunderground v.1.15,2013-03-05 22:38:00,
2013-03-05 17:44:00,43.6,28.9,30.03,ESE,121,0.0,0.0,56,0.00,,,0.00,Wunderground v.1.15,2013-03-05 22:44:00,
2013-03-05 17:50:00,43.4,28.7,30.03,ESE,121,0.0,0.0,56,0.00,,,0.00,Wunderground v.1.15,2013-03-05 22:50:00,
2013-03-05 17:56:00,43.1,28.5,30.03,ESE,121,0.0,0.0,56,0.00,,,0.00,Wunderground v.1.15,2013-03-05 22:56:00,
2013-03-05 18:02:00,42.8,28.6,30.03,ESE,121,0.0,0.0,57,0.00,,,0.00,Wunderground v.1.15,2013-03-05 23:02:00,
2013-03-05 18:08:00,42.5,28.8,30.04,ESE,121,0.0,0.0,58,0.00,,,0.00,Wunderground v.1.15,2013-03-05 23:08:00,
2013-03-05 18:14:00,42.2,28.5,30.03,ESE,121,0.0,0.0,58,0.00,,,0.00,Wunderground v.1.15,2013-03-05 23:14:00,
2013-03-05 18:20:00,41.8,28.5,30.03,ESE,121,0.0,0.0,59,0.00,,,0.00,Wunderground v.1.15,2013-03-05 23:20:00,
2013-03-05 18:26:00,41.3,28.9,30.04,ESE,121,0.0,0.0,61,0.00,,,0.00,Wunderground v.1.15,2013-03-05 23:26:00,
2013-03-05 18:32:00,40.8,28.4,30.04,ESE,121,0.0,0.0,61,0.00,,,0.00,Wunderground v.1.15,2013-03-05 23:32:00,
2013-03-05 18:38:00,40.4,28.4,30.04,ESE,121,0.0,0.0,62,0.00,,,0.00,Wunderground v.1.15,2013-03-05 23:38:00,
2013-03-05 18:44:00,40.0,28.8,30.05,ESE,121,0.0,0.0,64,0.00,,,0.00,Wunderground v.1.15,2013-03-05 23:44:00,
2013-03-05 18:50:00,39.6,28.4,30.05,ESE,121,0.0,0.0,64,0.00,,,0.00,Wunderground v.1.15,2013-03-05 23:50:00,
2013-03-05 18:56:00,39.3,28.5,30.05,ESE,121,0.0,0.0,65,0.00,,,0.00,Wunderground v.1.15,2013-03-05 23:56:00,
2013-03-05 19:02:00,39.2,28.4,30.04,ESE,121,0.0,0.0,65,0.00,,,0.00,Wunderground v.1.15,2013-03-06 00:02:00,
2013-03-05 19:08:00,38.8,28.8,30.05,ESE,121,0.0,0.0,67,0.00,,,0.00,Wunderground v.1.15,2013-03-06 00:08:00,
2013-03-05 19:14:00,38.5,29.2,30.05,ESE,121,0.0,1.0,69,0.00,,,0.00,Wunderground v.1.15,2013-03-06 00:14:00,
2013-03-05 19:20:00,38.5,29.6,30.05,ESE,121,0.0,1.0,70,0.00,,,0.00,Wunderground v.1.15,2013-03-06 00:20:00,
2013-03-05 19:26:00,38.6,29.7,30.05,ESE,121,0.0,1.0,70,0.00,,,0.00,Wunderground v.1.15,2013-03-06 00:26:00,
2013-03-05 19:32:00,38.5,29.9,30.05,ESE,121,0.0,0.0,71,0.00,,,0.00,Wunderground v.1.15,2013-03-06 00:32:00,
2013-03-05 19:38:00,38.3,29.7,30.05,ESE,121,0.0,0.0,71,0.00,,,0.00,Wunderground v.1.15,2013-03-06 00:38:00,
2013-03-05 19:44:00,38.2,30.0,30.05,ESE,121,0.0,0.0,72,0.00,,,0.00,Wunderground v.1.15,2013-03-06 00:44:00,
2013-03-05 19:50:00,37.8,29.9,30.05,ESE,121,0.0,0.0,73,0.00,,,0.00,Wunderground v.1.15,2013-03-06 00:50:00,
2013-03-05 19:56:00,37.5,29.6,30.05,ESE,121,0.0,0.0,73,0.00,,,0.00,Wunderground v.1.15,2013-03-06 00:56:00,
2013-03-05 20:02:00,37.0,29.8,30.05,ESE,121,0.0,0.0,75,0.00,,,0.00,Wunderground v.1.15,2013-03-06 01:02:00,
2013-03-05 20:08:00,36.7,29.5,30.05,ESE,121,0.0,0.0,75,0.00,,,0.00,Wunderground v.1.15,2013-03-06 01:08:00,
2013-03-05 20:14:00,36.5,29.7,30.05,ESE,121,0.0,0.0,76,0.00,,,0.00,Wunderground v.1.15,2013-03-06 01:14:00,
2013-03-05 20:20:00,36.2,29.7,30.05,ESE,121,0.0,0.0,77,0.00,,,0.00,Wunderground v.1.15,2013-03-06 01:20:00,
2013-03-05 20:26:00,35.8,29.3,30.05,ESE,121,0.0,0.0,77,0.00,,,0.00,Wunderground v.1.15,2013-03-06 01:26:00,
2013-03-05 20:32:00,35.5,29.3,30.05,ESE,121,0.0,0.0,78,0.00,,,0.00,Wunderground v.1.15,2013-03-06 01:32:00,
2013-03-05 20:38:00,35.3,29.4,30.05,WSW,237,0.0,0.0,79,0.00,,,0.00,Wunderground v.1.15,2013-03-06 01:38:00,
2013-03-05 20:44:00,35.2,29.3,30.04,WSW,237,0.0,0.0,79,0.00,,,0.00,Wunderground v.1.15,2013-03-06 01:44:00,
2013-03-05 20:50:00,35.0,29.1,30.05,WSW,237,0.0,0.0,79,0.00,,,0.00,Wunderground v.1.15,2013-03-06 01:50:00,
2013-03-05 20:56:00,34.9,29.4,30.05,WSW,237,0.0,0.0,80,0.00,,,0.00,Wunderground v.1.15,2013-03-06 01:56:00,
2013-03-05 21:02:00,34.7,29.2,30.05,WSW,237,0.0,0.0,80,0.00,,,0.00,Wunderground v.1.15,2013-03-06 02:02:00,
2013-03-05 21:08:00,34.5,29.0,30.05,WSW,237,0.0,0.0,80,0.00,,,0.00,Wunderground v.1.15,2013-03-06 02:08:00,
2013-03-05 21:14:00,34.3,29.1,30.05,WSW,237,0.0,0.0,81,0.00,,,0.00,Wunderground v.1.15,2013-03-06 02:14:00,
2013-03-05 21:20:00,34.1,28.9,30.05,WSW,237,0.0,0.0,81,0.00,,,0.00,Wunderground v.1.15,2013-03-06 02:20:00,
2013-03-05 21:26:00,33.9,29.0,30.05,WSW,237,0.0,0.0,82,0.00,,,0.00,Wunderground v.1.15,2013-03-06 02:26:00,
2013-03-05 21:32:00,33.8,28.9,30.05,WSW,237,0.0,0.0,82,0.00,,,0.00,Wunderground v.1.15,2013-03-06 02:32:00,
2013-03-05 21:38:00,33.5,28.6,30.05,WSW,237,0.0,0.0,82,0.00,,,0.00,Wunderground v.1.15,2013-03-06 02:38:00,
2013-03-05 21:44:00,33.3,28.4,30.05,WSW,237,0.0,0.0,82,0.00,,,0.00,Wunderground v.1.15,2013-03-06 02:44:00,
2013-03-05 21:50:00,33.1,28.5,30.05,WSW,237,0.0,0.0,83,0.00,,,0.00,Wunderground v.1.15,2013-03-06 02:50:00,
2013-03-05 21:56:00,33.0,28.4,30.04,WSW,237,0.0,0.0,83,0.00,,,0.00,Wunderground v.1.15,2013-03-06 02:56:00,
2013-03-05 22:02:00,32.8,28.5,30.04,WSW,237,0.0,0.0,84,0.00,,,0.00,Wunderground v.1.15,2013-03-06 03:02:00,
2013-03-05 22:08:00,32.7,28.4,30.04,WSW,237,0.0,0.0,84,0.00,,,0.00,Wunderground v.1.15,2013-03-06 03:08:00,
2013-03-05 22:14:00,32.6,28.3,30.04,WSW,237,0.0,0.0,84,0.00,,,0.00,Wunderground v.1.15,2013-03-06 03:14:00,
2013-03-05 22:20:00,32.5,28.5,30.04,WSW,237,0.0,0.0,85,0.00,,,0.00,Wunderground v.1.15,2013-03-06 03:20:00,
2013-03-05 22:26:00,32.4,28.4,30.04,WSW,237,0.0,0.0,85,0.00,,,0.00,Wunderground v.1.15,2013-03-06 03:26:00,
2013-03-05 22:32:00,32.4,28.4,30.04,WSW,237,0.0,0.0,85,0.00,,,0.00,Wunderground v.1.15,2013-03-06 03:32:00,
2013-03-05 22:38:00,32.4,28.7,30.04,WSW,237,0.0,0.0,86,0.00,,,0.00,Wunderground v.1.15,2013-03-06 03:38:00,
2013-03-05 22:44:00,32.4,28.4,30.04,WSW,237,0.0,0.0,85,0.00,,,0.00,Wunderground v.1.15,2013-03-06 03:44:00,
2013-03-05 22:50:00,32.3,28.6,30.03,WSW,237,0.0,0.0,86,0.00,,,0.00,Wunderground v.1.15,2013-03-06 03:50:00,
2013-03-05 22:56:00,32.4,28.7,30.03,WSW,237,0.0,0.0,86,0.00,,,0.00,Wunderground v.1.15,2013-03-06 03:56:00,
2013-03-05 23:02:00,32.5,28.8,30.03,WSW,237,0.0,0.0,86,0.00,,,0.00,Wunderground v.1.15,2013-03-06 04:02:00,
2013-03-05 23:08:00,32.5,28.8,30.03,WSW,237,0.0,0.0,86,0.00,,,0.00,Wunderground v.1.15,2013-03-06 04:08:00,
2013-03-05 23:14:00,32.5,28.8,30.03,WSW,237,0.0,0.0,86,0.00,,,0.00,Wunderground v.1.15,2013-03-06 04:14:00,
2013-03-05 23:20:00,32.6,29.2,30.03,WSW,237,0.0,0.0,87,0.00,,,0.00,Wunderground v.1.15,2013-03-06 04:20:00,
2013-03-05 23:26:00,32.9,29.7,30.02,SW,234,0.0,0.0,88,0.00,,,0.00,Wunderground v.1.15,2013-03-06 04:26:00,
2013-03-05 23:32:00,33.9,31.3,30.02,ESE,104,0.0,0.0,90,0.00,,,0.00,Wunderground v.1.15,2013-03-06 04:32:00,
2013-03-05 23:38:00,34.7,31.8,30.02,ESE,123,1.0,1.0,89,0.00,,,0.00,Wunderground v.1.15,2013-03-06 04:38:00,
2013-03-05 23:44:00,35.7,33.1,30.02,SE,145,1.0,2.0,90,0.00,,,0.00,Wunderground v.1.15,2013-03-06 04:44:00,
2013-03-05 23:50:00,36.9,34.0,30.02,ESE,111,2.0,2.0,89,0.00,,,0.00,Wunderground v.1.15,2013-03-06 04:50:00,
2013-03-05 23:56:00,37.7,34.2,30.01,ESE,110,2.0,2.0,87,0.00,,,0.00,Wunderground v.1.15,2013-03-06 04:56:00,